User: anonymous   Login
Location: Unspecified
(0.0000°N, 0.0000°E)
Time: 20:48:12
(UTC+00:00)
Language:

STARLINK-3056 - Orbit

View from above orbital plane
View from above orbital plane
View from above satellite
View from above satellite

Ground track
Ground track

The orbit is defined by the following mean orbital elements,

1 49159U          26145.32937150 +.00000000 +00000-0 -84386-4 0 00003
2 49159  69.9995 101.2215 0003310 272.3212  87.7568 14.98324028    07
Epoch (UTC): 25 May 2026 07:54:17
Eccentricity: 0.0003310
inclination: 69.9995°
perigee height: 570 km
apogee height: 574 km
right ascension of ascending node: 101.2215°
argument of perigee: 272.3212°
revolutions per day: 14.98324028
mean anomaly at epoch: 87.7568°

The dashed part of the orbit path shows where the satellite is in the earth's shadow,  

DLR